Regional Weather Roundup
Issued by NWS

Home | Current Version | Previous Version | Graphics & Text | Print | Product List | Glossary On
Versions: 1 2 3 4 5 6 7 8 9 10 11 12 13 14 15 16 17 18 19 20 21 22 23 24 25 26 27 28 29 30 31 32 33 34 35 36 37 38 39 40 41 42 43 44 45 46 47 48 49 50
000
ASUS45 KCYS 180210
RWRWY

WYOMING REGIONAL WEATHER ROUNDUP
NATIONAL WEATHER SERVICE CHEYENNE WY
800 PM MDT WED SEP 17 2014

NOTE:  "FAIR" INDICATES FEW OR NO CLOUDS BELOW 12,000 FEET
WITH NO SIGNIFICANT WEATHER AND/OR OBSTRUCTIONS TO VISIBILITY.

WYZ001-180300-
YELLOWSTONE NATIONAL PARK

CITY           SKY/WX    TMP DP  RH WIND       PRES   REMARKS
LK YELLOWSTONE   N/A     52  43  71 CALM      30.20R
W YELLOWSTONE  NOT AVBL

$$
WYZ002>013-054>058-071-098>099-180300-
NORTHERN WYOMING

CITY           SKY/WX    TMP DP  RH WIND       PRES   REMARKS
JACKSON        CLEAR     68  39  34 CALM      30.07R
CODY             N/A    N/A N/A N/A MISG        N/A
GREYBULL       CLOUDY    73  47  39 NE16      29.94S
WORLAND        MOCLDY    73  44  35 CALM      29.93R
SHERIDAN       PTCLDY    65  54  67 W3        29.93R
BUFFALO        PTCLDY    64  47  53 W6        30.01R
GILLETTE       PTCLDY    58  48  69 SW3       29.95R
HULETT         FAIR      68  48  49 MISG      29.97
NEWCASTLE      FAIR      68  37  32 SE8       29.95

$$
WYZ014>020-022>026-101>103-180300-
CENTRAL WYOMING

CITY           SKY/WX    TMP DP  RH WIND       PRES   REMARKS
BIG PINEY      PTCLDY    59  47  64 N6        30.14R
PINEDALE       MOCLDY    61  37  41 CALM      30.16S
DUBOIS         FAIR      63  36  36 W6        30.13S
LANDER         MOCLDY    72  38  29 W6        30.01R
RIVERTON       MOCLDY    74  38  27 NE9       30.02R
CASPER         PTCLDY    65  35  33 NW7       30.02R
DOUGLAS        CLEAR     68  41  37 CALM      29.99R

$$
WYZ021-027>030-104>119-180300-
SOUTHERN WYOMING

CITY           SKY/WX    TMP DP  RH WIND       PRES   REMARKS
EVANSTON       PTCLDY    65  41  41 SE9       30.14R
KEMMERER       CLEAR    N/A N/A N/A S13       30.17R
FORT BRIDGER   FAIR      66  40  38 S17G24    30.17
ROCK SPRINGS   PTCLDY    71  35  26 SW16      30.12R
DIXON          FAIR      64  43  46 NE6       30.14R
RAWLINS        PTCLDY    62  35  36 CALM      30.13S
SARATOGA       FAIR      59  39  47 S7        30.17R
LARAMIE        PTCLDY    59  41  51 S7        30.17S
CHEYENNE       CLEAR     66  43  43 S6        30.10R
TORRINGTON     PTCLDY    67  46  47 NE10      29.95R
PINE BLUFFS    FAIR      66  45  45 CALM      30.04R

$$


USA.gov is the U.S. government's official web portal to all federal, state and local government web resources and services.